Location: Rounton
(54.4000°N, 1.3500°W)
Time: 07:01:45
(UTC+00:00)

Vanguard 3 - Pass Details

Date: 03 December 2021
Orbit: 508 x 3260 km, 33.3° (Epoch: 16 January)

Event Time Altitude Azimuth Distance (km) Brightness Sun altitude
Rises 07:44:38 0° 259° (W) 7,109 11.5 -3.4°
Reaches altitude 10° 07:50:45 10° 250° (WSW) 5,845 11.2 -2.6°
Maximum altitude 08:03:23 27° 203° (SSW) 3,768 10.8 -1.2°
Drops below altitude 10° 08:12:23 10° 152° (SSE) 4,069 12.2 -0.2°
Sets 08:15:44 0° 140° (SE) 4,672 13.6 0.2°
